Date,TemperatureHighF,TemperatureAvgF,TemperatureLowF,DewpointHighF,DewpointAvgF,DewpointLowF,HumidityHigh,HumidityAvg,HumidityLow,PressureMaxIn,PressureMinIn,WindSpeedMaxMPH,WindSpeedAvgMPH,GustSpeedMaxMPH,PrecipitationSumIn
2013-1-1,40,38,30,32,30,20,82,73,63,30.02,29.85,3,1,8,0.01
2013-1-2,33,28,22,20,18,16,89,68,53,30.20,29.99,6,1,11,0.00
2013-1-3,34,27,20,23,19,16,91,73,50,30.21,30.09,4,1,7,0.00
2013-1-4,38,33,24,25,24,20,87,68,58,30.12,30.00,5,1,13,0.00
2013-1-5,42,33,26,26,24,21,87,70,53,30.34,30.05,4,1,11,0.00
2013-1-6,48,37,30,35,31,26,96,79,50,30.22,29.98,3,0,9,0.03
2013-1-7,47,37,25,33,29,23,94,75,49,30.40,30.07,4,1,8,0.03
2013-1-8,49,32,21,35,28,20,97,84,58,30.42,30.34,6,1,13,0.00
2013-1-9,49,37,26,41,33,25,98,86,68,30.39,30.16,4,1,12,0.00
2013-1-10,50,41,33,35,30,28,86,66,46,30.53,30.28,5,1,10,0.00
2013-1-11,45,39,30,44,36,27,99,89,75,30.51,30.07,2,0,7,0.46
2013-1-12,52,45,41,48,44,40,100,97,85,30.16,30.07,2,0,5,0.38
2013-1-13,48,46,43,48,46,43,100,100,99,30.14,29.98,2,0,7,0.01
2013-1-14,54,50,41,53,47,35,100,90,58,30.28,29.92,3,0,6,0.07
2013-1-15,41,37,35,39,33,29,96,83,73,30.34,30.20,3,1,8,0.20
2013-1-16,37,35,33,36,34,32,98,97,94,30.19,29.82,5,1,10,0.90
2013-1-17,42,38,35,36,33,30,98,82,66,30.09,29.94,4,1,9,0.01
2013-1-18,36,30,23,32,20,13,92,68,44,30.47,30.00,5,2,14,0.00
2013-1-19,51,39,28,33,27,17,83,63,46,30.40,29.93,10,3,14,0.00
2013-1-20,55,43,30,34,26,13,75,54,30,30.05,29.74,7,3,16,0.00
2013-1-21,33,28,22,25,16,11,90,63,48,30.11,29.85,4,1,10,0.00
2013-1-22,25,19,13,13,3,-2,64,50,37,30.24,29.87,7,3,20,0.00
2013-1-23,20,15,9,7,4,-1,88,61,46,30.28,30.17,5,1,11,0.00
2013-1-24,25,18,10,10,6,0,88,60,35,30.45,30.11,6,1,14,0.00
2013-1-25,23,16,6,16,7,2,90,68,45,30.45,30.07,3,1,7,0.00
2013-1-26,28,18,4,15,11,1,92,75,53,30.40,30.06,4,1,9,0.00
2013-1-27,35,20,6,19,13,3,94,76,50,30.55,30.40,3,1,8,0.00
2013-1-28,34,30,19,34,28,16,98,93,87,30.50,30.02,7,1,11,0.23
2013-1-29,51,42,32,47,41,32,100,95,84,30.14,30.01,3,0,6,0.02
2013-1-30,67,53,38,61,51,38,100,95,80,30.03,29.34,9,2,21,0.31
2013-1-31,57,39,29,57,24,13,99,57,44,29.84,29.29,8,4,18,1.48
2013-2-1,30,27,22,21,13,8,85,57,41,30.28,29.83,7,2,14,0.07
2013-2-2,30,23,15,23,12,7,93,63,42,30.31,30.02,5,1,14,0.00
2013-2-3,30,26,23,26,23,20,95,87,74,30.02,29.80,4,0,8,0.02
2013-2-4,30,25,18,22,15,12,85,66,50,30.03,29.85,5,2,12,0.01
2013-2-5,33,31,28,31,27,23,95,88,81,29.95,29.87,2,0,6,0.00
2013-2-6,39,31,22,31,25,20,97,82,55,30.35,29.92,4,1,9,0.02
2013-2-7,35,28,19,23,19,15,95,71,50,30.47,30.27,4,1,10,0.01
2013-2-8,36,34,32,35,32,24,97,91,72,30.27,29.68,6,2,17,0.32
2013-2-9,34,28,23,32,20,12,98,73,54,30.37,29.78,6,2,15,0.06
2013-2-10,42,28,15,23,15,11,85,60,32,30.48,30.29,3,1,6,0.02
2013-2-11,49,40,32,48,38,24,100,93,68,30.29,29.66,4,0,10,0.29
2013-2-12,46,39,28,40,29,25,96,68,49,29.98,29.75,5,2,16,0.01
2013-2-13,44,33,23,33,28,22,98,82,56,29.96,29.67,3,1,8,0.02
2013-2-14,47,36,28,35,32,27,99,85,56,30.01,29.71,3,1,8,0.15
2013-2-15,58,41,27,37,32,26,98,74,44,30.01,29.90,5,1,10,0.02
2013-2-16,37,34,31,34,28,18,97,78,58,29.98,29.78,5,2,11,0.05
2013-2-17,31,27,21,17,11,4,66,49,42,30.07,29.74,7,3,16,0.00
2013-2-18,37,26,19,19,11,5,72,54,38,30.31,30.07,6,2,15,0.00
2013-2-19,44,36,25,42,31,18,96,82,58,30.19,29.70,8,2,16,0.18
2013-2-20,35,30,24,28,16,12,76,58,46,30.04,29.77,6,3,15,0.01
2013-2-21,35,29,24,19,16,13,68,59,48,30.30,30.03,5,3,13,0.01
2013-2-22,37,31,22,31,23,16,86,72,61,30.40,30.24,3,1,11,0.00
2013-2-23,46,40,35,45,39,31,99,97,86,30.24,29.80,4,1,10,0.07
2013-2-24,46,38,29,40,32,22,99,80,60,30.01,29.77,7,2,12,0.04
2013-2-25,46,35,25,31,26,22,90,71,53,30.22,30.01,4,1,11,0.01
2013-2-26,45,35,23,36,30,22,97,84,62,30.24,29.78,7,3,17,0.51
2013-2-27,51,43,38,47,41,37,99,91,72,29.78,29.50,9,2,18,0.83
2013-2-28,47,41,35,38,34,27,94,77,51,29.66,29.57,4,1,9,0.01
2013-3-1,44,37,29,34,30,27,96,76,56,29.81,29.64,5,1,11,0.00
2013-3-2,40,35,32,28,25,22,74,65,53,29.81,29.72,6,2,10,0.00
2013-3-3,37,32,26,23,21,19,75,63,51,29.80,29.72,5,2,11,0.00
2013-3-4,41,34,30,24,21,18,71,60,47,29.95,29.80,6,3,17,0.00
2013-3-5,47,38,31,30,26,23,79,64,47,30.03,29.93,5,1,9,0.00
2013-3-6,41,38,35,37,33,29,92,84,73,29.94,29.75,9,5,26,0.20
2013-3-7,46,40,35,32,29,27,85,65,51,30.09,29.93,6,3,14,0.02
2013-3-8,44,36,30,34,30,26,93,79,62,30.22,30.05,6,3,13,0.05
2013-3-9,61,43,30,29,25,17,82,54,18,30.30,30.20,5,1,11,0.05
2013-3-10,58,41,25,37,30,22,91,69,36,30.36,30.24,5,1,9,0.00
2013-3-11,60,48,37,49,42,34,99,84,53,30.29,30.04,5,1,13,0.00
2013-3-12,57,52,40,56,49,35,98,91,77,30.04,29.67,8,2,22,1.03
2013-3-13,49,40,30,35,30,23,96,68,44,29.95,29.82,6,2,12,0.01
2013-3-14,42,35,30,23,18,14,74,51,36,30.00,29.90,8,3,16,0.00
2013-3-15,51,39,26,34,23,14,73,53,43,30.02,29.72,6,2,17,0.00
2013-3-16,45,37,33,34,31,24,96,78,56,29.92,29.75,3,1,7,0.09
2013-3-17,40,33,27,32,26,21,97,75,52,30.29,29.91,5,1,10,0.05
2013-3-18,40,32,25,34,25,15,97,77,53,30.36,29.90,5,2,11,0.47
2013-3-19,50,41,35,40,34,21,98,79,41,29.91,29.70,6,2,11,0.69
2013-3-20,47,39,31,27,21,17,70,51,31,29.92,29.78,5,2,13,0.01
2013-3-21,38,33,29,30,21,13,92,63,40,29.82,29.66,5,2,11,0.00
2013-3-22,41,34,27,23,20,14,73,59,46,29.92,29.78,7,2,22,0.00
2013-3-23,48,38,30,24,22,20,70,54,37,29.96,29.85,5,2,14,0.00
2013-3-24,46,37,26,27,23,21,89,60,38,29.98,29.67,5,1,10,0.00
2013-3-25,38,36,33,35,32,27,97,87,63,29.68,29.47,7,1,16,0.34
2013-3-26,50,40,33,37,34,29,98,79,45,29.90,29.63,4,1,10,0.07
2013-3-27,51,40,28,36,31,27,98,73,42,30.02,29.90,7,1,15,0.00
2013-3-28,48,41,31,34,30,26,88,67,42,30.14,30.00,6,2,11,0.00
2013-3-29,53,44,29,35,30,26,92,62,41,30.18,30.09,5,1,10,0.00
2013-3-30,58,43,27,37,29,25,97,64,29,30.19,30.08,4,1,9,0.00
2013-3-31,57,43,30,47,36,-100,98,80,42,30.13,29.70,6,1,14,0.08
2013-4-1,65,48,35,47,36,15,100,68,35,29.93,29.66,7,2,16,0.03
2013-4-2,45,37,28,22,17,13,77,45,30,30.11,29.93,6,2,14,0.00
2013-4-3,47,37,25,21,18,13,82,48,29,30.31,30.11,6,2,18,0.00
2013-4-4,53,39,25,30,22,15,78,52,32,30.41,30.09,8,2,12,0.00
2013-4-5,63,49,38,37,29,20,87,51,22,30.09,29.75,6,2,11,0.00
2013-4-6,53,43,34,29,22,16,67,46,25,30.31,30.01,6,1,10,0.00
2013-4-7,63,50,39,45,37,27,79,62,47,30.30,29.98,10,4,21,0.00
2013-4-8,77,62,43,52,47,40,92,61,36,30.07,29.96,6,1,14,0.00
2013-4-9,84,71,53,56,52,47,87,55,29,30.00,29.89,9,2,17,0.00
2013-4-10,89,72,59,61,57,53,97,63,37,29.93,29.75,6,2,14,0.57
2013-4-11,65,59,49,62,56,45,100,89,73,29.95,29.78,6,2,16,0.57
2013-4-12,49,45,43,45,44,42,98,95,85,29.94,29.68,7,3,21,0.73
2013-4-13,60,49,37,47,40,36,100,74,43,29.97,29.74,5,1,10,0.16
2013-4-14,61,50,36,43,37,28,99,65,35,30.15,29.97,6,1,12,0.01
2013-4-15,59,52,46,45,39,33,79,62,53,30.34,30.15,4,2,9,0.00
2013-4-16,71,59,46,59,51,43,92,75,61,30.33,30.11,11,3,21,0.01
2013-4-17,73,62,56,57,50,41,97,69,35,30.27,30.09,5,1,9,0.01
2013-4-18,61,56,50,57,52,43,96,84,70,30.29,30.05,4,1,10,0.01
2013-4-19,77,66,54,67,62,52,97,86,67,30.05,29.61,12,4,23,0.60
2013-4-20,58,51,43,53,38,28,97,64,37,30.30,29.72,6,1,13,0.75
2013-4-21,54,45,34,35,27,22,77,51,36,30.60,30.30,5,1,11,0.01
2013-4-22,53,43,31,40,34,30,97,72,50,30.60,30.44,7,2,17,0.00
2013-4-23,50,46,42,44,39,35,94,79,71,30.44,30.14,5,2,11,0.00
2013-4-24,71,55,36,57,48,35,99,79,59,30.14,29.80,9,2,17,0.00
2013-4-25,63,53,42,57,36,28,87,55,27,30.27,29.87,4,2,19,0.00
2013-4-26,64,50,36,41,36,29,97,64,28,30.42,30.27,3,1,8,0.00
2013-4-27,70,53,34,44,36,33,96,59,27,30.45,30.27,5,1,8,0.00
2013-4-28,70,56,39,47,38,-100,95,57,32,30.30,30.18,9,2,14,0.00
2013-4-29,57,54,51,56,52,46,99,94,74,30.21,30.12,2,0,8,0.40
2013-4-30,69,58,47,54,46,34,99,69,35,30.31,30.16,5,2,12,0.09
2013-5-1,69,54,36,45,38,30,98,62,26,30.46,30.31,5,1,11,0.01
2013-5-2,72,56,38,47,43,37,99,68,34,30.45,30.32,4,1,10,0.00
2013-5-3,65,55,44,45,42,37,95,65,37,30.42,30.32,5,1,14,0.00
2013-5-4,71,55,38,48,42,37,99,68,37,30.36,30.19,4,1,12,0.00
2013-5-5,66,52,38,45,42,37,98,70,44,30.27,30.17,4,1,10,0.00
2013-5-6,69,55,43,55,49,41,95,81,59,30.23,30.11,4,1,10,0.00
2013-5-7,71,60,53,62,56,51,99,88,69,30.14,30.03,5,1,11,0.08
2013-5-8,71,62,58,64,60,55,99,93,59,30.04,29.92,4,1,8,0.82
2013-5-9,71,61,56,60,57,56,100,88,62,29.97,29.90,1,0,6,0.38
2013-5-10,84,66,51,63,55,-100,100,73,38,30.01,29.89,4,1,10,0.32
2013-5-11,73,65,61,67,63,60,99,94,76,29.93,29.70,6,1,13,1.07
2013-5-12,65,58,45,61,43,-100,99,65,30,29.97,29.71,3,1,9,0.03
2013-5-13,55,47,36,39,34,27,97,64,37,30.13,29.97,3,1,7,0.01
2013-5-14,62,48,33,40,34,29,98,63,29,30.17,30.03,2,0,7,0.00
2013-5-15,72,59,45,62,51,40,95,76,59,30.07,29.70,7,1,13,0.00
2013-5-16,82,61,54,67,37,-100,99,83,56,29.86,29.72,4,0,8,0.08
2013-5-17,74,62,49,57,41,-100,97,64,37,30.18,29.86,3,1,8,0.01
2013-5-18,69,59,52,57,54,48,97,83,57,30.28,30.18,5,1,10,0.08
2013-5-19,62,60,57,61,60,56,100,99,97,30.27,30.15,2,0,6,0.21
2013-5-20,71,61,58,68,61,58,100,99,91,30.16,30.08,4,0,8,0.04
2013-5-21,83,78,68,73,70,67,100,78,68,29.98,29.86,6,2,12,0.01
2013-5-22,87,75,65,75,70,64,100,85,62,29.92,29.82,9,2,17,0.00
2013-5-23,80,72,67,71,69,66,98,89,68,29.89,29.75,7,2,14,0.57
2013-5-24,66,55,46,65,53,40,100,91,74,30.03,29.71,3,1,12,0.50
2013-5-25,60,53,45,44,40,36,91,65,43,30.07,29.98,5,1,11,0.01
2013-5-26,69,56,44,47,40,37,86,60,33,30.21,30.03,4,1,12,0.01
2013-5-27,73,58,38,52,44,37,99,64,32,30.27,30.15,4,0,9,0.00
2013-5-28,64,58,50,63,57,48,99,96,86,30.21,30.10,3,0,5,0.26
2013-5-29,90,74,60,71,65,60,100,79,47,30.11,30.02,5,1,13,0.01
2013-5-30,94,79,63,71,67,62,99,70,40,30.15,30.07,2,0,7,0.00
2013-5-31,92,78,64,71,66,60,99,70,35,30.14,30.01,6,1,16,0.00
2013-6-1,90,79,65,71,68,64,99,73,46,30.03,29.91,6,2,14,0.00
2013-6-2,87,79,73,72,68,-100,86,73,58,29.92,29.80,7,3,15,0.00
2013-6-3,80,72,64,71,68,62,100,89,65,29.88,29.80,3,0,7,0.65
2013-6-4,76,65,55,62,51,47,94,64,39,30.11,29.88,3,0,8,0.12
2013-6-5,79,64,47,56,50,46,99,64,34,30.20,30.08,4,1,7,0.00
2013-6-6,74,64,53,64,57,51,99,81,46,30.13,29.96,5,1,9,0.22
2013-6-7,66,63,60,66,63,60,100,99,97,29.96,29.61,3,1,10,2.72
2013-6-8,77,67,59,67,63,59,100,88,69,30.08,29.60,2,0,5,0.54
2013-6-9,82,70,55,66,61,55,100,77,47,30.19,30.08,4,0,8,0.01
2013-6-10,72,69,65,72,68,64,99,96,86,30.14,29.78,6,1,14,1.46
2013-6-11,81,74,65,70,67,63,100,82,63,29.78,29.68,6,1,13,0.60
2013-6-12,83,72,61,65,62,60,98,73,46,29.84,29.77,2,0,6,0.00
2013-6-13,78,69,61,73,64,57,99,85,68,29.84,29.39,3,1,12,0.66
2013-6-14,75,63,54,61,56,52,98,81,55,29.93,29.52,3,1,15,0.06
2013-6-15,82,67,53,63,58,52,100,75,43,30.03,29.93,2,0,7,0.02
2013-6-16,82,68,56,68,62,55,99,81,51,30.01,29.82,6,1,16,0.00
2013-6-17,88,74,62,70,67,62,100,79,51,29.93,29.84,5,0,9,0.00
2013-6-18,77,67,62,73,66,61,100,96,76,29.91,29.81,2,0,12,0.38
2013-6-19,78,66,58,65,58,51,100,77,41,30.16,29.86,4,0,13,0.08
2013-6-20,80,65,53,62,57,52,100,77,49,30.27,30.15,5,1,10,0.00
2013-6-22,86,82,75,68,67,65,77,61,50,30.25,30.12,5,2,10,0.00
2013-6-23,86,74,61,76,69,60,99,84,60,30.20,30.06,5,1,11,0.05
2013-6-24,93,77,68,76,71,66,100,83,52,30.09,29.98,5,0,11,0.01
2013-6-25,93,76,63,76,70,63,100,83,50,30.02,29.85,2,0,11,0.05
2013-6-26,89,76,66,76,70,65,99,84,57,29.88,29.78,3,0,5,0.24
2013-6-27,88,76,68,75,72,68,100,88,61,29.83,29.56,5,1,15,0.74
2013-6-28,86,75,68,73,70,66,99,86,64,29.59,29.48,7,1,14,0.54
2013-6-29,86,76,65,70,67,64,100,77,51,29.68,29.49,7,1,14,0.02
2013-6-30,84,73,66,75,71,65,99,93,75,29.88,29.70,4,0,8,0.15
2013-7-1,78,75,71,75,73,70,100,96,87,30.01,29.87,5,1,13,0.85
2013-7-2,84,77,74,75,73,71,96,88,72,30.18,30.01,8,3,18,0.02
2013-7-3,84,76,71,77,73,70,98,90,77,30.24,30.16,4,1,11,0.05
2013-7-4,87,80,72,76,74,71,100,82,65,30.25,30.16,7,2,15,0.01
2013-7-5,91,81,72,77,74,71,99,80,55,30.22,30.11,6,2,16,0.01
2013-7-6,95,89,78,77,75,72,85,64,48,30.16,30.04,3,1,9,0.00
2013-7-7,93,81,71,78,74,70,99,80,56,30.09,29.96,3,0,8,0.01
2013-7-8,86,74,68,76,70,67,100,89,62,30.07,30.01,1,0,8,0.03
2013-7-9,86,76,67,76,72,67,100,89,68,30.08,30.00,5,0,11,0.03
2013-7-10,86,78,72,76,72,-100,100,85,66,30.02,29.83,7,1,14,0.02
2013-7-11,84,77,73,75,72,67,95,84,64,29.91,29.82,3,0,8,0.01
2013-7-12,75,71,68,71,67,64,99,87,79,30.04,29.91,3,1,9,0.67
2013-7-13,88,76,69,77,73,68,100,90,67,30.29,30.03,3,0,8,0.70
2013-7-14,91,79,71,78,74,71,100,86,58,30.35,30.25,1,0,7,0.23
2013-7-15,95,82,69,78,74,69,100,81,57,30.28,30.15,1,0,6,0.00
2013-7-16,93,81,72,76,73,70,100,80,49,30.22,30.14,2,0,7,0.00
2013-7-17,96,80,70,76,72,70,100,80,43,30.20,30.07,3,0,5,0.00
2013-7-18,97,83,72,80,76,71,99,82,53,30.10,29.97,1,0,4,0.00
2013-7-19,96,86,76,81,78,75,100,80,57,30.00,29.82,5,1,13,0.00
2013-7-20,92,82,73,77,72,-100,93,76,59,29.85,29.76,7,1,12,0.00
2013-7-21,91,79,71,77,72,70,98,81,55,29.94,29.84,1,0,5,0.00
2013-7-22,86,75,71,78,73,69,99,92,72,29.94,29.78,2,0,6,0.52
2013-7-23,87,76,70,76,73,70,100,92,67,29.78,29.59,2,0,9,1.51
2013-7-24,78,73,66,71,68,56,100,85,66,29.93,29.65,2,0,5,0.07
2013-7-25,71,65,59,62,58,54,89,78,67,30.04,29.93,3,0,7,0.00
2013-7-26,82,70,60,65,61,59,97,77,51,30.06,30.01,2,0,4,0.00
2013-7-27,85,73,59,71,64,58,100,77,54,30.05,29.92,6,1,16,0.00
2013-7-28,81,72,65,73,68,64,99,88,77,29.98,29.88,6,1,14,0.79
2013-7-29,84,72,61,69,64,57,100,80,41,30.13,29.96,2,0,8,0.04
2013-7-30,81,68,56,63,60,56,100,79,49,30.20,30.12,1,0,5,0.01
2013-7-31,82,70,57,68,62,57,100,79,50,30.17,30.03,4,1,7,0.00
2013-8-1,73,70,66,71,67,63,100,93,80,30.03,29.82,4,1,9,1.15
2013-8-2,85,74,67,70,67,63,100,81,49,29.94,29.82,4,0,11,0.01
2013-8-3,75,69,64,70,66,63,100,93,79,29.94,29.88,3,0,5,0.04
2013-8-4,80,69,60,65,61,57,100,78,52,30.00,29.87,2,0,5,0.01
2013-8-5,78,65,53,60,56,51,100,77,43,30.09,30.00,2,0,5,0.00
2013-8-6,79,66,54,66,60,53,100,84,52,30.11,30.03,6,1,11,0.01
2013-8-7,74,70,64,70,68,63,99,92,80,30.12,30.04,5,1,11,0.02
2013-8-8,84,76,69,77,72,68,99,89,74,30.05,29.98,7,2,14,0.16
2013-8-9,84,78,75,79,75,72,97,90,77,30.01,29.82,5,2,13,0.05
2013-8-10,83,74,66,74,69,65,100,85,56,30.05,29.89,1,0,4,0.05
2013-8-11,86,72,60,69,64,59,100,77,48,30.14,30.01,5,0,10,0.00
2013-8-12,84,74,67,72,69,66,100,86,60,30.04,29.93,2,0,6,0.00
2013-8-13,81,70,65,72,66,-100,100,91,69,29.93,29.71,3,0,5,2.94
2013-8-14,74,63,56,69,51,-100,98,73,53,30.06,29.77,2,0,8,0.01
2013-8-15,78,52,49,58,31,-100,100,75,41,30.16,30.07,1,0,5,0.00
2013-8-16,82,62,51,62,49,-100,100,74,38,30.20,30.14,4,0,7,0.00
2013-8-17,82,68,54,65,58,53,100,75,43,30.27,30.21,3,0,6,0.00
2013-8-18,75,65,60,66,59,-100,100,87,56,30.26,30.14,1,0,4,0.04
2013-8-19,77,62,60,69,45,-100,100,88,70,30.16,30.06,2,0,5,0.01
2013-8-20,87,71,60,72,63,-100,100,84,50,30.15,30.07,3,0,6,0.00
2013-8-21,89,73,61,73,66,61,100,83,43,30.19,30.07,1,0,4,0.00
2013-8-22,82,75,71,75,72,70,99,90,73,30.07,29.90,4,0,9,0.35
2013-8-23,75,69,62,70,66,61,99,90,72,30.10,29.91,0,0,2,0.01
2013-8-24,80,67,57,61,57,52,98,74,41,30.35,30.10,2,1,7,0.00
2013-8-25,81,62,51,64,52,-100,100,79,43,30.42,30.27,5,1,8,0.00
2013-8-26,86,72,59,69,64,58,97,78,53,30.25,29.95,4,1,9,0.00
2013-8-27,88,76,68,70,69,67,96,79,54,29.95,29.87,0,0,0,0.01
2013-9-10,86,76,67,76,71,64,97,85,69,30.18,30.07,6,2,12,0.00
2013-9-11,92,80,69,79,74,69,100,83,61,30.13,29.99,7,1,12,0.00
2013-9-12,87,76,69,76,72,68,99,89,66,30.00,29.72,6,1,11,0.28
2013-9-13,77,67,58,69,62,52,100,85,56,29.89,29.66,2,0,5,0.09
2013-9-14,64,56,47,52,50,46,98,80,60,30.16,29.89,2,0,5,0.02
2013-9-15,73,52,42,56,46,-100,100,86,48,30.23,30.09,4,0,7,0.00
2013-9-16,70,60,55,61,57,52,99,91,65,30.24,30.04,1,0,3,0.08
2013-9-17,65,53,44,52,45,41,97,76,45,30.43,30.24,3,1,10,0.01
2013-9-18,45,41,39,44,40,38,100,98,96,30.35,30.34,0,0,0,0.00
2013-9-19,77,61,42,58,52,41,100,75,47,30.20,30.08,6,1,10,0.00
2013-9-26,75,59,46,60,53,45,100,84,50,30.09,29.94,3,0,5,0.00
2013-9-27,69,60,53,59,54,52,99,83,57,30.26,30.09,2,0,5,0.00
2013-9-28,73,61,52,56,53,50,98,79,47,30.32,30.23,3,0,7,0.00
2013-9-29,73,57,45,58,50,-100,100,82,54,30.23,30.08,2,0,7,0.00
2013-9-30,74,57,44,57,51,43,100,83,49,30.09,29.98,2,0,7,0.00
2013-10-1,62,58,51,60,56,50,96,94,92,30.02,29.96,0,0,0,0.00
2013-10-2,85,73,52,66,62,51,100,71,49,30.03,29.95,2,0,5,0.00
2013-10-3,82,68,54,66,61,53,100,80,51,30.13,30.03,3,0,6,0.00
2013-10-4,87,72,58,69,65,57,100,80,52,30.07,29.98,2,0,9,0.00
2013-10-5,87,72,62,70,66,61,100,83,55,30.09,30.00,2,0,8,0.00
2013-10-18,66,57,44,63,48,43,95,73,49,30.01,29.73,2,1,6,0.01
2013-10-19,65,51,39,56,46,38,99,85,56,30.01,29.78,4,1,8,0.15
2013-10-20,64,51,41,53,40,-100,97,73,41,30.08,29.80,3,1,9,0.15
2013-10-23,40,40,39,37,37,36,90,89,88,29.80,29.80,0,0,1,0.15
2013-10-24,54,43,34,38,34,30,97,73,45,30.05,29.80,3,1,9,0.00
2013-11-2,68,56,47,53,48,42,99,78,47,29.80,29.63,3,0,7,0.29
2013-11-3,52,44,33,43,32,-100,92,65,39,30.46,29.81,4,1,10,0.00
2013-11-4,48,36,27,30,24,18,90,66,30,30.64,30.46,4,1,10,0.00
2013-11-5,57,44,31,45,38,28,92,79,57,30.63,30.47,3,0,6,0.00
2013-11-6,65,54,42,54,48,40,95,81,60,30.49,30.07,5,2,11,0.00
2013-11-7,61,53,41,58,51,39,96,91,79,30.06,29.80,6,1,17,0.06
2013-11-8,49,42,33,39,32,29,89,69,48,30.26,29.98,4,1,10,0.02
2013-11-9,52,39,27,35,28,-100,98,71,43,30.32,30.01,4,1,9,0.00
2013-11-10,60,51,37,40,34,29,94,53,42,30.11,29.88,5,2,14,0.00
2013-11-11,55,47,34,38,33,29,87,58,43,30.25,29.98,6,2,15,0.00
2013-11-12,50,37,24,39,26,17,89,63,46,30.33,29.95,5,2,11,0.00
2013-11-13,41,30,22,24,19,16,89,66,39,30.41,30.32,4,1,9,0.00
2013-11-14,56,40,25,23,20,14,91,51,19,30.31,30.19,5,1,9,0.00
2013-11-15,59,50,30,35,32,27,92,53,31,30.26,30.16,3,1,5,0.00
2013-11-16,59,47,37,48,42,-100,98,85,64,30.33,30.24,4,0,9,0.04
2013-11-17,66,58,50,59,53,48,94,86,74,30.25,29.78,5,1,13,0.01
2013-11-18,66,58,49,61,43,28,97,61,31,29.84,29.64,8,2,15,0.12
2013-11-19,49,42,32,30,27,24,77,56,45,30.35,29.85,6,2,13,0.10
2013-11-20,47,34,26,26,21,11,89,65,25,30.55,30.36,3,1,7,0.00
2013-11-21,52,40,24,42,32,20,90,74,60,30.60,30.39,4,0,6,0.00
2013-11-22,57,51,46,52,48,41,97,89,78,30.38,29.95,2,0,7,0.02
2013-11-23,52,41,29,50,28,-100,96,63,46,30.09,29.96,5,2,13,0.01
2013-11-24,31,26,22,15,7,3,59,46,33,30.43,30.09,7,2,14,0.00
2013-11-25,36,28,19,19,15,10,80,59,43,30.52,30.33,4,1,11,0.00
2013-11-26,47,35,32,47,30,19,99,80,58,30.33,29.68,3,1,8,0.67
2013-11-27,61,43,32,61,41,23,100,93,68,29.82,29.42,5,2,15,2.06
2013-11-28,38,31,27,25,21,18,89,67,52,30.47,29.86,6,2,13,0.01
2013-11-29,41,30,21,26,23,20,95,75,48,30.73,30.46,3,0,8,0.00
2013-11-30,39,29,18,30,21,-100,92,77,64,30.73,30.38,3,0,8,0.00
2013-12-1,48,38,27,35,31,25,95,77,52,30.36,30.03,2,0,6,0.00
2013-12-2,51,40,35,37,34,32,90,79,54,30.02,29.88,2,0,4,0.00
2013-12-3,55,43,33,41,36,31,93,80,52,30.00,29.88,2,0,6,0.00
2013-12-4,53,44,31,45,39,29,97,82,69,30.11,30.01,1,0,5,0.00
2013-12-5,58,52,48,58,52,45,100,97,86,30.10,29.93,6,0,9,0.00
2013-12-29,44,41,36,44,40,32,99,94,75,30.05,29.45,3,1,7,1.16
2013-12-30,44,37,27,40,30,17,99,80,63,30.17,29.74,3,1,9,0.01
2013-12-31,35,28,22,28,19,15,83,68,57,30.31,30.06,5,1,11,0.00
2014-1-1,38,29,20,26,21,15,89,72,55,30.41,30.20,4,0,7,0.00
2014-1-2,32,28,19,27,24,17,94,84,72,30.18,29.66,5,2,11,0.00